CZ-6A DEB, 55543

Orbit data source: Space-Track

CZ-6A DEB, 55543 is space debris in SSO originally from a launch on Fri, 11 Nov 2022 UTC launched from the Taiyaun Space Center, China (TSC). Debris objects in space refer to the collection of defunct objects orbiting the Earth. Examples of debris include non-operational satellites, rocket bodies, and fragments generated from explosions, collisions, or faulty payload assembly.

Loading next visibility...
Identifier
55543, 2022-151YR
Orbit
SSO
Country
Flag of CNCN / PRC
Related business
Manufacturer
SAST
Mission
Spacecraft
Bus & Motor
Unknown
Mass
Unknown
Launch date (UTC)
2022-11-11 (4 years ago)
Launch vehicle
Unknown
Launch site
Taiyaun Space Center, China (TSC)
Object type
Payload
Rocket body
Debris
Shape & HBR
Unknown shape, 0.1 m
Radar Cross Section
Small (<0.1 m²)

Expand to show TLE details & history
Last TLE update: 3 days ago

TLE from 3 days ago
0 CZ-6A DEB
1 55543U 22151YR  26170.64405517  .00003133  00000-0  61112-3 0  9995
2 55543  98.5169 211.0470 0126102 300.4093  58.4692 14.58799239184653
Epoch: 2026-06-19T15:27Z
TLE epoch observation values (Epoch: 2026-06-19T15:27:26.366Z)
Latitude
-0.00005°
Longitude
71.31707°
Altitude
654.186 km
Speed
7.555 km/s
True Right ascension
14h 04m 11s
True Declination
0° 00' 00"
Sunlit
Object was in full shadow at epoch
Visualization orbit readout
Latitude
Unknown
Longitude
Unknown
Altitude
Unknown
Speed
Unknown
Apparent Right ascension
Unknown
Apparent Declination
Unknown
Sunlit
N/A
Visualization observer readout
Local Sidereal Time
21:30:38
Azimuth
Unknown
Elevation
Unknown
Doppler factor
Unknown
Orbital elements
Apogee altitude
783.334 km
Perigee altitude
604.968 km
Semi-major axis
7,072.288 km
Eccentricity
0.01261
Inclination
98.5169°
RAAN
211.047°
Arg. of periapsis
300.4093°
True anomaly
59.71101°
Mean anomaly
58.4692°
Eccentric anomaly
59.08909°
Mean motion
3.64925 °/min
Orbital period
98.65 mins
BSTAR
0.00061112
Loading maneuver chart data...
Computing Atmospheric mass density...
Loading historical data...
Loading historical data...
Loading historical data...
Loading historical data...
Loading historical data...
Loading historical data...
Loading historical data...

Documentation

Showing up to 5 results
|